EW7239 Weather Reports


Display with metric or nautical units.
time (UTC)temp
F
wind
direction
speed
MPH
gust
MPH
rain 1hr
in
rain 24hr
in
rain mn
in
humidity
%
barometer
mb
20260901043925 72 222 2.0 5.0 0.00 0.00 0.00 65 1014.4
20260901043422 72 222 3.0 5.0 0.00 0.00 0.00 65 1014.3
20260901042921 73 222 2.0 5.0 0.00 0.00 0.00 64 1014.3
20260901042421 73 222 1.0 5.0 0.00 0.00 0.00 64 1014.3
20260901042151 73 222 2.0 4.0 0.00 0.00 0.00 63 1014.2
20260901041417 73 222 2.0 4.0 0.00 0.00 0.00 63 1014.1
20260901040917 73 222 3.0 7.0 0.00 0.00 0.00 62 1014.0
20260901040417 74 222 4.0 7.0 0.00 0.00 0.00 62 1013.8
20260901040145 74 221 5.0 7.0 0.00 0.00 0.00 62 1013.7
20260901035412 74 224 4.0 8.0 0.00 0.00 0.00 62 1013.6
20260901034913 74 224 4.0 9.0 0.00 0.00 0.00 61 1013.6
20260901034409 74 224 5.0 9.0 0.00 0.00 0.00 61 1013.5
20260901033910 75 227 4.0 8.0 0.00 0.00 0.00 61 1013.3
20260901033410 75 242 5.0 11.0 0.00 0.00 0.00 61 1013.1
20260901032910 75 229 6.0 11.0 0.00 0.00 0.00 60 1013.1
20260901032405 75 230 5.0 10.0 0.00 0.00 0.00 60 1013.0
20260901031907 76 227 5.0 11.0 0.00 0.00 0.00 60 1012.9
20260901031404 76 226 6.0 11.0 0.00 0.00 0.00 59 1012.9
20260901030904 76 221 7.0 11.0 0.00 0.00 0.00 59 1013.0
20260901030401 76 219 7.0 13.0 0.00 0.00 0.00 58 1012.9
20260901025903 76 246 7.0 13.0 0.00 0.00 0.00 57 1012.8
20260901025402 77 226 7.0 13.0 0.00 0.00 0.00 57 1012.7
20260901024902 77 217 7.0 11.0 0.00 0.00 0.00 56 1012.7
20260901024403 77 219 7.0 12.0 0.00 0.00 0.00 55 1012.8
20260901023857 78 223 7.0 12.0 0.00 0.00 0.00 55 1012.7
20260901023357 78 219 7.0 10.0 0.00 0.00 0.00 53 1012.7
20260901022857 78 215 6.0 10.0 0.00 0.00 0.00 52 1012.6
20260901021859 79 226 7.0 12.0 0.00 0.00 0.00 49 1012.5
20260901021407 80 223 7.0 12.0 0.00 0.00 0.00 47 1012.5
20260901020854 80 223 7.0 12.0 0.00 0.00 0.00 45 1012.3
20260901020354 80 218 8.0 12.0 0.00 0.00 0.00 43 1012.3
20260901015852 81 207 7.0 11.0 0.00 0.00 0.00 41 1012.2
20260901015350 81 223 7.0 14.0 0.00 0.00 0.00 39 1012.3
20260901014851 82 209 7.0 14.0 0.00 0.00 0.00 37 1012.3
20260901014348 83 217 6.0 12.0 0.00 0.00 0.00 36 1012.3
20260901014120 83 227 7.0 12.0 0.00 0.00 0.00 35 1012.3
20260901013346 83 221 7.0 12.0 0.00 0.00 0.00 36 1012.3
20260901012846 83 231 8.0 12.0 0.00 0.00 0.00 35 1012.3
20260901012617 83 222 8.0 14.0 0.00 0.00 0.00 35 1012.3
20260901011847 84 218 8.0 14.0 0.00 0.00 0.00 35 1012.2
20260901011343 85 230 7.0 12.0 0.00 0.00 0.00 37 1012.2
20260901011113 85 233 8.0 15.0 0.00 0.00 0.00 36 1012.2
20260901010339 85 224 8.0 15.0 0.00 0.00 0.00 36 1012.2
20260901005839 85 226 8.0 16.0 0.00 0.00 0.00 36 1012.2
20260901005612 85 227 8.0 16.0 0.00 0.00 0.00 35 1012.2
20260901004838 86 242 8.0 15.0 0.00 0.00 0.00 34 1012.2
20260901004338 87 219 8.0 16.0 0.00 0.00 0.00 34 1012.2
20260901003836 87 238 8.0 16.0 0.00 0.00 0.00 34 1012.1
20260901003336 87 228 9.0 17.0 0.00 0.00 0.00 34 1012.2
20260901003105 86 256 9.0 17.0 0.00 0.00 0.00 35 1012.2
20260901002335 87 232 8.0 17.0 0.00 0.00 0.00 33 1012.3
20260901002106 88 252 8.0 16.0 0.00 0.00 0.00 34 1012.2
20260901001329 88 224 8.0 16.0 0.00 0.00 0.00 34 1012.3
20260901000831 88 254 8.0 16.0 0.00 0.00 0.00 34 1012.2
20260901000331 88 246 8.0 16.0 0.00 0.00 0.00 33 1012.2
20260831235831 89 273 8.0 17.0 0.00 0.00 0.00 30 1012.3
20260831235326 88 232 7.0 17.0 0.00 0.00 0.00 31 1012.2
20260831234827 89 215 7.0 17.0 0.00 0.00 0.00 31 1012.2
20260831234327 89 240 8.0 17.0 0.00 0.00 0.00 32 1012.1
20260831233826 89 226 7.0 15.0 0.00 0.00 0.00 30 1012.2
20260831233552 89 213 7.0 12.0 0.00 0.00 0.00 32 1012.2
20260831232823 89 225 9.0 16.0 0.00 0.00 0.00 34 1012.2
20260831232323 88 218 10.0 16.0 0.00 0.00 0.00 33 1012.2
20260831231823 88 222 10.0 17.0 0.00 0.00 0.00 34 1012.2
20260831231317 89 217 11.0 19.0 0.00 0.00 0.00 33 1012.3
20260831230818 89 228 10.0 19.0 0.00 0.00 0.00 35 1012.3
20260831230332 89 221 10.0 16.0 0.00 0.00 0.00 36 1012.3
20260831225818 89 219 9.0 16.0 0.00 0.00 0.00 36 1012.2
20260831225314 89 213 9.0 16.0 0.00 0.00 0.00 37 1012.2
20260831224814 89 234 9.0 16.0 0.00 0.00 0.00 38 1012.2
20260831224545 89 214 10.0 15.0 0.00 0.00 0.00 38 1012.3
20260831223815 89 219 10.0 15.0 0.00 0.00 0.00 38 1012.3
20260831223311 89 226 9.0 15.0 0.00 0.00 0.00 38 1012.3
20260831223041 90 230 9.0 15.0 0.00 0.00 0.00 38 1012.3
20260831222310 91 219 8.0 12.0 0.00 0.00 0.00 38 1012.5
20260831221811 91 245 8.0 17.0 0.00 0.00 0.00 38 1012.6
20260831221305 91 221 7.0 17.0 0.00 0.00 0.00 38 1012.6
20260831220806 91 219 7.0 13.0 0.00 0.00 0.00 37 1012.7
20260831220306 91 226 8.0 14.0 0.00 0.00 0.00 38 1012.8
20260831215806 91 236 7.0 14.0 0.00 0.00 0.00 35 1012.8
20260831214802 91 225 7.0 13.0 0.00 0.00 0.00 35 1012.9
20260831214533 91 227 7.0 13.0 0.00 0.00 0.00 35 1013.0
20260831213802 91 218 7.0 13.0 0.00 0.00 0.00 33 1013.0
20260831213529 92 205 7.0 13.0 0.00 0.00 0.00 33 1013.0
20260831212759 91 245 7.0 13.0 0.00 0.00 0.00 31 1013.0
20260831212258 92 219 6.0 13.0 0.00 0.00 0.00 33 1013.1
20260831211758 91 239 7.0 12.0 0.00 0.00 0.00 32 1013.3
20260831211524 91 213 7.0 11.0 0.00 0.00 0.00 33 1013.2
20260831210754 91 225 7.0 12.0 0.00 0.00 0.00 32 1013.3
20260831210254 91 211 7.0 13.0 0.00 0.00 0.00 32 1013.3
20260831210025 91 242 7.0 13.0 0.00 0.00 0.00 31 1013.3
20260831205249 91 223 7.0 12.0 0.00 0.00 0.00 32 1013.4
20260831205021 91 224 6.0 12.0 0.00 0.00 0.00 34 1013.4
20260831204251 91 263 6.0 12.0 0.00 0.00 0.00 34 1013.4
20260831203750 91 219 7.0 10.0 0.00 0.00 0.00 34 1013.4
20260831203246 90 211 7.0 12.0 0.00 0.00 0.00 37 1013.4
20260831202746 91 219 7.0 12.0 0.00 0.00 0.00 37 1013.5
20260831202246 91 235 6.0 14.0 0.00 0.00 0.00 36 1013.5
20260831201746 91 190 5.0 14.0 0.00 0.00 0.00 34 1013.5
20260831201243 91 252 6.0 12.0 0.00 0.00 0.00 37 1013.5
20260831200513 90 268 4.0 12.0 0.00 0.00 0.00 38 1013.5
20260831195743 89 227 5.0 8.0 0.00 0.00 0.00 41 1013.5
20260831195510 89 215 6.0 10.0 0.00 0.00 0.00 39 1013.6
20260831194738 90 223 5.0 10.0 0.00 0.00 0.00 38 1013.7
20260831194239 89 235 4.0 11.0 0.00 0.00 0.00 40 1013.7
20260831193738 89 250 5.0 11.0 0.00 0.00 0.00 40 1013.7
20260831193234 88 217 5.0 10.0 0.00 0.00 0.00 41 1013.7
20260831192734 88 219 5.0 8.0 0.00 0.00 0.00 43 1013.8
20260831192235 87 223 4.0 9.0 0.00 0.00 0.00 44 1013.9
20260831192006 87 216 3.0 9.0 0.00 0.00 0.00 47 1013.9
20260831191229 87 217 4.0 9.0 0.00 0.00 0.00 47 1014.0
20260831190730 86 212 4.0 10.0 0.00 0.00 0.00 47 1014.1
20260831190502 85 232 5.0 11.0 0.00 0.00 0.00 48 1014.2
20260831185731 85 222 5.0 11.0 0.00 0.00 0.00 50 1014.2
20260831185226 85 219 4.0 8.0 0.00 0.00 0.00 52 1014.2
20260831184957 85 229 5.0 8.0 0.00 0.00 0.00 52 1014.2
20260831184226 85 221 4.0 8.0 0.00 0.00 0.00 52 1014.3
20260831183726 85 229 4.0 7.0 0.00 0.00 0.00 53 1014.3
20260831183454 85 225 3.0 7.0 0.00 0.00 0.00 55 1014.3
20260831182722 83 228 3.0 7.0 0.00 0.00 0.00 58 1014.3
20260831182222 83 225 4.0 8.0 0.00 0.00 0.00 59 1014.3
20260831181722 83 228 4.0 8.0 0.00 0.00 0.00 59 1014.3
20260831181217 82 213 5.0 7.0 0.00 0.00 0.00 61 1014.3
20260831180718 82 199 4.0 7.0 0.00 0.00 0.00 60 1014.4
20260831180218 81 206 4.0 7.0 0.00 0.00 0.00 62 1014.4
20260831175718 81 208 4.0 8.0 0.00 0.00 0.00 62 1014.4
20260831175214 81 207 4.0 8.0 0.00 0.00 0.00 63 1014.4
20260831174715 81 212 4.0 8.0 0.00 0.00 0.00 63 1014.5
20260831174214 81 226 3.0 7.0 0.00 0.00 0.00 64 1014.5
20260831173715 80 227 3.0 6.0 0.00 0.00 0.00 65 1014.5
20260831173210 80 227 3.0 7.0 0.00 0.00 0.00 67 1014.4
20260831172711 79 228 4.0 7.0 0.00 0.00 0.00 67 1014.4
20260831172210 79 229 3.0 6.0 0.00 0.00 0.00 67 1014.4
20260831171711 78 226 3.0 6.0 0.00 0.00 0.00 70 1014.4
20260831171211 78 226 3.0 6.0 0.00 0.00 0.00 71 1014.4
20260831170706 78 226 3.0 6.0 0.00 0.00 0.00 71 1014.4
20260831170206 77 235 3.0 6.0 0.00 0.00 0.00 71 1014.3
20260831165706 77 236 2.0 6.0 0.00 0.00 0.00 72 1014.3
20260831165202 77 237 3.0 6.0 0.00 0.00 0.00 73 1014.2
20260831164936 76 237 3.0 6.0 0.00 0.00 0.00 71 1014.2
20260831164202 77 241 2.0 5.0 0.00 0.00 0.00 73 1014.2
20260831163159 76 246 3.0 6.0 0.00 0.00 0.00 73 1014.1
20260831162658 76 247 3.0 6.0 0.00 0.00 0.00 74 1014.1
20260831162158 76 249 3.0 6.0 0.00 0.00 0.00 74 1014.2
20260831161929 75 250 2.0 6.0 0.00 0.00 0.00 76 1014.1
20260831161424 75 250 2.0 5.0 0.00 0.00 0.00 77 1014.1
20260831160654 74 250 2.0 5.0 0.00 0.00 0.00 78 1014.2
20260831160155 74 250 2.0 5.0 0.00 0.00 0.00 78 1014.2
20260831155655 74 250 2.0 4.0 0.00 0.00 0.00 80 1014.2
20260831155152 74 250 1.0 4.0 0.00 0.00 0.00 80 1014.2
20260831154651 73 250 2.0 4.0 0.00 0.00 0.00 80 1014.1
20260831154151 73 250 2.0 4.0 0.00 0.00 0.00 81 1014.2
20260831153651 73 250 1.0 4.0 0.00 0.00 0.00 81 1014.2
20260831153146 73 250 1.0 4.0 0.00 0.00 0.00 82 1014.2
20260831152646 73 250 1.0 3.0 0.00 0.00 0.00 82 1014.2
20260831152146 72 250 0.0 3.0 0.00 0.00 0.00 83 1014.2
20260831151646 72 250 0.0 2.0 0.00 0.00 0.00 83 1014.2
20260831151141 72 250 0.0 4.0 0.00 0.00 0.00 84 1014.1
20260831150655 71 250 1.0 4.0 0.00 0.00 0.00 83 1014.1
20260831150142 71 250 0.0 3.0 0.00 0.00 0.00 84 1014.1
20260831145645 71 250 0.0 2.0 0.00 0.00 0.00 84 1014.1
20260831145137 71 250 0.0 3.0 0.00 0.00 0.00 83 1014.1
20260831144638 71 250 0.0 3.0 0.00 0.00 0.00 83 1014.1
20260831144138 70 250 0.0 2.0 0.00 0.00 0.00 83 1014.0
20260831143638 70 250 1.0 3.0 0.00 0.00 0.00 83 1014.0
20260831142635 70 250 0.0 2.0 0.00 0.00 0.00 83 1013.9
20260831142134 69 250 0.0 0.0 0.00 0.00 0.00 83 1013.9
20260831141635 69 250 0.0 0.0 0.00 0.00 0.00 83 1013.9
20260831141130 69 250 0.0 3.0 0.00 0.00 0.00 83 1013.8
20260831140630 69 250 1.0 3.0 0.00 0.00 0.00 84 1013.7
20260831140131 69 250 1.0 3.0 0.00 0.00 0.00 84 1013.7
20260831135630 69 250 2.0 4.0 0.00 0.00 0.00 84 1013.6
20260831135126 69 250 2.0 4.0 0.00 0.00 0.00 84 1013.5
20260831134626 69 250 2.0 4.0 0.00 0.00 0.00 83 1013.4
20260831134127 69 250 2.0 4.0 0.00 0.00 0.00 84 1013.4
20260831133858 69 250 3.0 4.0 0.00 0.00 0.00 84 1013.3
20260831133121 69 250 2.0 4.0 0.00 0.00 0.00 84 1013.2
20260831132623 69 250 1.0 4.0 0.00 0.00 0.00 84 1013.2
20260831132122 69 250 0.0 3.0 0.00 0.00 0.00 84 1013.2
20260831131622 69 250 0.0 0.0 0.00 0.00 0.00 84 1013.2
20260831131117 68 250 0.0 0.0 0.00 0.00 0.00 84 1013.2
20260831130849 68 250 0.0 0.0 0.00 0.00 0.00 84 1013.2
20260831130350 69 250 0.0 0.0 0.00 0.00 0.00 84 1013.2
20260831125114 69 250 0.0 0.0 0.00 0.00 0.00 84 1013.1
20260831124614 69 250 0.0 0.0 0.00 0.00 0.00 84 1013.1
20260831124345 69 250 0.0 0.0 0.00 0.00 0.00 84 1013.1
20260831123845 69 250 0.0 1.0 0.00 0.00 0.00 84 1013.0
20260831123341 69 250 0.0 1.0 0.00 0.00 0.00 84 1012.9
20260831122610 69 250 0.0 0.0 0.00 0.00 0.00 84 1012.9
20260831122110 69 250 0.0 0.0 0.00 0.00 0.00 84 1013.0
20260831121842 69 250 0.0 0.0 0.00 0.00 0.00 84 1012.9
20260831121106 69 250 0.0 0.0 0.00 0.00 0.00 84 1013.0
20260831120608 69 250 0.0 0.0 0.00 0.00 0.00 84 1013.0
20260831120340 69 250 0.0 0.0 0.00 0.00 0.00 84 1013.0
20260831115102 69 250 0.0 0.0 0.00 0.00 0.00 84 1013.1
20260831114834 69 250 0.0 0.0 0.00 0.00 0.00 84 1013.1
20260831114102 69 250 0.0 0.0 0.00 0.00 0.00 84 1013.1
20260831113603 69 250 0.0 3.0 0.00 0.00 0.00 84 1013.2
20260831113058 69 250 0.0 3.0 0.00 0.00 0.00 84 1013.1
20260831112558 69 250 0.0 0.0 0.00 0.00 0.00 84 1013.2
20260831112058 69 250 0.0 0.0 0.00 0.00 0.00 84 1013.2
20260831111558 70 250 0.0 0.0 0.00 0.00 0.00 84 1013.1
20260831111325 70 250 0.0 2.0 0.00 0.00 0.00 84 1013.2
20260831110554 70 250 1.0 3.0 0.00 0.00 0.00 83 1013.1
20260831110107 70 250 1.0 3.0 0.00 0.00 0.00 83 1013.1
20260831105554 70 250 1.0 2.0 0.00 0.00 0.00 83 1013.1
20260831105051 70 250 1.0 2.0 0.00 0.00 0.00 83 1013.1
20260831104550 70 250 1.0 3.0 0.00 0.00 0.00 83 1013.2
20260831104050 70 250 1.0 3.0 0.00 0.00 0.00 83 1013.2
20260831103821 70 250 1.0 3.0 0.00 0.00 0.00 83 1013.1
20260831103046 70 250 1.0 3.0 0.00 0.00 0.00 83 1013.1
20260831102546 70 250 1.0 3.0 0.00 0.00 0.00 83 1013.1
20260831102046 70 250 1.0 3.0 0.00 0.00 0.00 82 1013.1
20260831101547 70 250 1.0 3.0 0.00 0.00 0.00 82 1013.1
20260831101042 70 250 1.0 3.0 0.00 0.00 0.00 82 1013.0
20260831100542 70 250 1.0 3.0 0.00 0.00 0.00 82 1013.0
20260831100055 70 250 1.0 3.0 0.00 0.00 0.00 82 1013.0
20260831095542 70 250 1.0 3.0 0.00 0.00 0.00 82 1013.0
20260831095309 70 250 1.0 3.0 0.00 0.00 0.00 82 1012.9
20260831094538 71 250 1.0 2.0 0.00 0.00 0.00 82 1012.9
20260831094039 71 250 1.0 2.0 0.00 0.00 0.00 82 1013.0
20260831093034 71 250 1.0 2.0 0.00 0.00 0.00 82 1013.0
20260831092534 71 250 1.0 3.0 0.00 0.00 0.00 82 1013.0
20260831092035 71 250 1.0 3.0 0.00 0.00 0.00 82 1013.0
20260831091534 71 250 1.0 3.0 0.00 0.00 0.00 82 1013.0
20260831091041 71 250 1.0 3.0 0.00 0.00 0.00 81 1012.9
20260831090530 71 250 0.0 4.0 0.00 0.00 0.00 81 1012.9
20260831090030 71 250 1.0 4.0 0.00 0.00 0.00 81 1012.9
20260831085532 71 250 1.0 4.0 0.00 0.00 0.00 81 1012.8
20260831085255 71 250 1.0 5.0 0.00 0.00 0.00 81 1012.9
20260831084526 71 250 2.0 5.0 0.00 0.00 0.00 80 1012.9
20260831084026 71 250 1.0 4.0 0.00 0.00 0.00 80 1013.0
20260831083526 71 250 1.0 3.0 0.00 0.00 0.00 80 1013.0
20260831083025 71 250 1.0 3.0 0.00 0.00 0.00 79 1013.0
20260831082755 72 250 1.0 4.0 0.00 0.00 0.00 79 1013.1
20260831082025 72 250 2.0 4.0 0.00 0.00 0.00 79 1013.0
20260831081525 72 250 2.0 5.0 0.00 0.00 0.00 79 1013.1
20260831081255 72 250 2.0 5.0 0.00 0.00 0.00 79 1013.2
20260831080525 72 250 2.0 5.0 0.00 0.00 0.00 78 1013.2
20260831075526 72 250 2.0 5.0 0.00 0.00 0.00 78 1013.3
20260831075024 72 250 2.0 4.0 0.00 0.00 0.00 78 1013.3
20260831074526 72 250 2.0 4.0 0.00 0.00 0.00 78 1013.2
20260831074255 72 250 1.0 4.0 0.00 0.00 0.00 77 1013.3
20260831073526 72 250 1.0 4.0 0.00 0.00 0.00 77 1013.3
20260831073024 72 250 1.0 3.0 0.00 0.00 0.00 77 1013.2
20260831072525 72 250 1.0 3.0 0.00 0.00 0.00 76 1013.1
20260831072025 73 250 2.0 4.0 0.00 0.00 0.00 76 1013.1
20260831071525 73 250 1.0 4.0 0.00 0.00 0.00 76 1013.2
20260831071024 73 250 2.0 5.0 0.00 0.00 0.00 76 1013.1
20260831070757 73 250 1.0 5.0 0.00 0.00 0.00 76 1013.0
20260831070027 73 250 1.0 4.0 0.00 0.00 0.00 76 1013.0
20260831065756 73 250 1.0 3.0 0.00 0.00 0.00 76 1012.9
20260831065039 73 250 2.0 3.0 0.00 0.00 0.00 75 1012.9
20260831064527 73 250 2.0 4.0 0.00 0.00 0.00 74 1012.9
20260831064026 73 250 2.0 4.0 0.00 0.00 0.00 74 1012.9
20260831063524 74 250 2.0 4.0 0.00 0.00 0.00 74 1012.9
20260831063256 74 250 2.0 3.0 0.00 0.00 0.00 73 1012.9
20260831062755 74 250 1.0 3.0 0.00 0.00 0.00 72 1012.8
20260831062025 74 250 1.0 4.0 0.00 0.00 0.00 72 1012.9
20260831061522 74 250 2.0 6.0 0.00 0.00 0.00 72 1012.9
20260831061019 74 250 3.0 8.0 0.00 0.00 0.00 72 1012.7
20260831060518 74 250 3.0 8.0 0.00 0.00 0.00 72 1012.8
20260831060248 74 252 3.0 8.0 0.00 0.00 0.00 72 1012.9
20260831055517 74 251 3.0 8.0 0.00 0.00 0.00 72 1012.9
20260831055016 74 248 3.0 7.0 0.00 0.00 0.00 73 1012.8
20260831054515 74 248 3.0 7.0 0.00 0.00 0.00 73 1012.8
20260831054015 74 244 3.0 6.0 0.00 0.00 0.00 73 1012.9
20260831053516 75 244 2.0 6.0 0.00 0.00 0.00 72 1012.9
20260831053011 75 245 3.0 6.0 0.00 0.00 0.00 72 1012.9
20260831052751 75 245 3.0 7.0 0.00 0.00 0.00 72 1012.9
20260831052008 75 244 3.0 7.0 0.00 0.00 0.00 72 1012.9
20260831051508 75 243 4.0 8.0 0.00 0.00 0.00 72 1012.8
20260831051007 75 245 4.0 8.0 0.00 0.00 0.00 72 1012.8
20260831050509 75 242 3.0 9.0 0.00 0.00 0.00 71 1012.7
20260831050008 75 234 3.0 9.0 0.00 0.00 0.00 71 1012.8
20260831045508 75 249 3.0 7.0 0.00 0.00 0.00 70 1012.8
20260831045008 76 249 4.0 9.0 0.00 0.00 0.00 70 1012.7
20260831044506 76 252 4.0 9.0 0.00 0.00 0.00 70 1012.7